Regional Weather Roundup
Issued by NWS

Home | Current Version | Previous Version | Text Only | Print | Product List | Glossary On
Versions: 1 2 3 4 5 6 7 8 9 10 11 12 13 14 15 16 17 18 19 20 21 22 23 24 25 26 27 28 29 30 31 32 33 34 35 36 37 38 39 40 41 42 43 44 45 46 47 48 49 50
101
ASUS43 KMKX 230311
RWRWI

WISCONSIN REGIONAL WEATHER ROUNDUP
NATIONAL WEATHER SERVICE MILWAUKEE/SULLIVAN WI
1000 PM CDT MON MAY 22 2017

NOTE: "FAIR" INDICATES FEW OR NO CLOUDS BELOW 12,000 FEET WITH NO
SIGNIFICANT WEATHER AND/OR OBSTRUCTIONS TO VISIBILITY.

WIZ001-002-006>008-014>016-023>028-230400-
NORTHWEST WISCONSIN

CITY           SKY/WX    TMP DP  RH WIND       PRES   REMARKS
SUPERIOR ARPT  NOT AVBL
ASHLAND        CLOUDY    50  45  83 S5        29.83S
HAYWARD        CLOUDY    51  45  79 CALM      29.83S
SIREN          MOCLDY    47  44  89 CALM      29.84S
CUMBERLAND     CLEAR     46  43  87 CALM      29.83S
RICE LAKE      CLEAR     50  46  85 CALM      29.85R
CHETEK         CLEAR     48  46  91 CALM      29.84R
LADYSMITH      CLEAR     46  44  93 CALM      29.85S
EAU CLAIRE     PTCLDY    52  45  77 NE3       29.82R
MENOMONIE      PTCLDY    54  45  72 CALM      29.82F
NEW RICHMOND   MOCLDY    51  44  77 CALM      29.84S
OSCEOLA        PTCLDY    51  45  79 CALM      29.86S
$$

WIZ003>005-009-010-017-018-230400-
NORTH CENTRAL WISCONSIN

CITY           SKY/WX    TMP DP  RH WIND       PRES   REMARKS
MANITOWISH WTR CLOUDY    48  48 100 CALM      29.84S
ARBOR VITAE    CLOUDY    49  46  89 CALM      29.84S
WOODRUFF       CLOUDY    49  46  89 CALM      29.84S
RHINELANDER    PTCLDY    50  43  77 CALM      29.85S
EAGLE RIVER    CLOUDY    47  43  85 CALM      29.85R
LAND O LAKES   CLOUDY    49  44  83 CALM      29.87S
PHILLIPS       CLOUDY    49  47  92 CALM      29.83S FOG
TOMAHAWK       CLEAR     42  40  93 CALM      29.84F
MEDFORD        CLOUDY    50  44  79 NE3       29.84S
MERRILL        PTCLDY    48  44  85 CALM      29.85R
$$

WIZ029-030-035-036-043>047-230400-
CENTRAL WISCONSIN

CITY           SKY/WX    TMP DP  RH WIND       PRES   REMARKS
WAUSAU         CLEAR     52  42  69 CALM      29.83R
MOSINEE        CLEAR     54  45  71 N5        29.85R
MARSHFIELD     CLEAR     55  43  63 NE8       29.82R
STEVENS POINT  CLEAR     48  45  90 N3        29.83F
WAUPACA        MOCLDY    60  46  60 N3        29.83R
WAUTOMA        CLOUDY    56  50  80 CALM      29.83R
WISC RAPIDS    CLEAR     57  46  66 NE7       29.83S
CAMP DOUGLAS   MOCLDY    54  52  94 E5        29.81R
$$

WIZ011>013-019>022-031-037>040-048>050-230400-
NORTHEAST WISCONSIN

CITY           SKY/WX    TMP DP  RH WIND       PRES   REMARKS
ANTIGO         PTCLDY    47  42  85 CALM      29.85S
SHAWANO        MOCLDY    56  50  79 CALM      29.84S
OCONTO         CLEAR     51  46  83 CALM      29.85S
STURGEON BAY   PTCLDY    51  46  83 NE5       29.86S
GREEN BAY      MOCLDY    55  50  83 NE9       29.85R
MANITOWOC      CLEAR     58  49  72 E3        29.85R
APPLETON       PTCLDY    57  48  72 VRB3      29.82R
CLINTONVILLE   CLEAR     55  43  62 N3        29.83F
OSHKOSH        CLOUDY    56  51  84 S7        29.83R
$$

WIZ032>034-041-042-053>061-230400-
SOUTHWEST WISCONSIN

CITY           SKY/WX    TMP DP  RH WIND       PRES   REMARKS
LA CROSSE      CLOUDY    61  53  75 NW3       29.80R
SPARTA         MOCLDY    52  49  90 CALM      29.82S
VIROQUA        CLOUDY    55  49  81 MISG      29.82R
BOSCOBEL       CLOUDY    59  55  87 S5        29.82S
PRAIRIE DU CHI MOCLDY    57  54  89 SE5       29.80S
PLATTEVILLE    CLOUDY    57  56  97 CALM      29.85F
$$

WIZ056-057-062-063-064-067-068-230400-
SOUTH CENTRAL WISCONSIN

CITY           SKY/WX    TMP DP  RH WIND       PRES   REMARKS
REEDSBURG      CLOUDY    58  53  86 CALM      29.82S
BARABOO/DELLS  CLOUDY    57  52  84 S7        29.82S
LONE ROCK      LGT RAIN  60  57  89 S10       29.82S FOG
MINERAL POINT  LGT RAIN  55  55 100 NW3G10    29.84S
MADISON        CLOUDY    60  55  83 S6        29.83S
MIDDLETON      CLOUDY    61  55  79 SW9       29.84S
WATERTOWN      CLOUDY    55  55 100 CALM      29.84F
MONROE         CLOUDY    57  54  88 SW10      29.86S
JANESVILLE     PTCLDY    59  55  88 SW10      29.86F
$$

WIZ051-052-058>065-066-070>072-230400-
SOUTHEAST WISCONSIN

CITY           SKY/WX    TMP DP  RH WIND       PRES   REMARKS
MILWAUKEE      MOCLDY    63  54  72 SW9       29.87R
WAUKESHA       NOT AVBL
MILWAUKEE/TIMM   N/A     57  52  82 CALM      29.87R
RACINE         MOCLDY    63  52  67 SW8       29.88S
KENOSHA        CLOUDY    63  53  70 SW15      29.88R
FOND DU LAC    CLOUDY    57  49  74 S7        29.84R
SHEBOYGAN      MOCLDY    53  50  89 CALM      29.84S
WEST BEND      MOCLDY    59  54  82 SW6       29.85S
JUNEAU         CLOUDY    57  53  87 S5        29.85F
$$

LSZ147-162-230400-
LAKE SUPERIOR

STATION/POSITION TIME  TEMP    WIND        PRES    WAVE
                       AIR SEA DIR/SP/G            HT/PER
                 (UTC) (F)     (DEG/KT/KT) (MB)    (FT/S)
W MID LAKE BUOY  0250   40 37  230/  4/  6 1010.6R   1/ 4
DEVILS ISLAND    0300   47     280/  7/  8 1010.2R
PORT WING        0230   47     290/  8/  9 1010.2S
SAXON HARBOR     0240   51     180/  4/  5 1010.2S
$$

LMZ867-665-643>646-230400-
LAKE MICHIGAN

STATION/POSITION TIME  TEMP    WIND        PRES    WAVE
                       AIR SEA DIR/SP/G            HT/PER
                 (UTC) (F)     (DEG/KT/KT) (MB)    (FT/S)
CHAMBERS ISLAND  0240   47     160/  3/  4 1010.8R
N MID LAKE BUOY  0250   42 39  190/  6/  6 1012.0R   3/ 6
NORTHPORT PIER   0240   49     170/  3/  3 1010.8R
KEWAUNEE LAKESHO 0242           30/  7/ 11 1010.9R
SHEBOYGAN LAKESH 0300   55     210/  4/  4 1010.5R
PORT WASHINGTON  0240   51     170/  2/  3 1011.9S
ATWATER BUOY     0209   48     150/  2/  4 1011.3R
MILWAUKEE LAKESH 0250   51     150/  2/  4   N/A
S MID LAKE BUOY  0250   50 45  210/ 10/ 10 1012.4R   1/ 3
KENOSHA   LAKESH 0300   63     210/ 10/ 15 1011.5
$$

TC  - TEMPERATURE IN CELSIUS
VSB - VISIBILITY IN STATUTE MILES
WCI - WIND CHILL INDEX
HX  - HEAT INDEX





USA.gov is the U.S. government's official web portal to all federal, state and local government web resources and services.